Location: Azul
(36.7830°S, 59.8500°W)
Time: 04:23:44
(UTC-03:00)

ISS - Pass Details

Date: 27 April 2017
Orbit: 401 x 409 km, 51.6° (Epoch: 29 April)

Event Time Altitude Azimuth Distance (km) Brightness Sun altitude
Rises 18:51:50 0° 356° (N) 2,320 0.2 -7.4°
Reaches altitude 10° 18:54:51 10° 26° (NNE) 1,473 -1.1 -8.0°
Maximum altitude 18:56:19 12° 53° (NE) 1,339 -1.6 -8.3°
Drops below altitude 10° 18:57:48 10° 79° (E) 1,484 -1.6 -8.6°
Enters shadow 18:57:48 10° 80° (E) 1,486 -1.6 -8.6°
